Location: Marcé
(47.5801°N, 0.3280°W)
Time: 19:34:24
(UTC+01:00)

Vanguard 1 - Pass Details

Date: 02 December 2021
Orbit: 652 x 3830 km, 34.2° (Epoch: 16 January)

Event Time Altitude Azimuth Distance (km) Brightness Sun altitude
Rises 00:45:48 0° 222° (SW) 7,352 - -64.4°
Reaches altitude 10° 00:50:50 10° 216° (SW) 6,597 - -64.4°
Maximum altitude 01:11:16 43° 154° (SSE) 4,675 - -64.0°
Exits shadow 01:24:15 23° 103° (ESE) 5,309 13.6 -63.5°
Drops below altitude 10° 01:29:34 10° 92° (E) 5,996 14.1 -63.2°
Sets 01:33:48 0° 87° (E) 6,666 14.5 -62.9°
